Home   Weather   Erlangen   Past weeks

Flag for Germany Past Weather in Erlangen, Bavaria, Germany — Yesterday and Last 2 Weeks

Now
46 °F

Light rain. Partly sunny.


Feels Like: 41 °F
Forecast: 47 / 48 °F
Wind: 12 mph from West

Location: Nuernberg

Current Time: Feb 21, 2017 at 8:32:27 am

Latest Report: Feb 21, 2017 at 7:50 am


Visibility: 6 mi

Pressure: 29.95 "Hg

Humidity: 100%

Dew Point: 46 °F

Location of ErlangenLocation

Past Weather in Erlangen — Graph

°F

Erlangen Temperature Yesterday

Maximum temperature yesterday: 48 °F (at 11:50 am)
Minimum temperature yesterday: 37 °F (at 3:50 am)
Average temperature yesterday: 43 °F

High & Low Weather Summary for the Past Weeks

 TemperatureHumidityPressure
High57 °F (Feb 16, 3:50 pm)100% (Feb 7, 6:20 am)30.57 "Hg (Feb 7, 6:20 am)
Low25 °F (Feb 10, 5:20 am)35% (Feb 14, 3:20 pm)29.86 "Hg (Feb 6, 7:20 am)
Average37 °F79%30.25 "Hg
* Reported Feb 6 7:20 am — Feb 21 7:20 am, Erlangen, Weather by CustomWeather, © 2017

Note: Actual official high and low records may vary slightly from our data, if they occured in-between our weather recording intervals... More about our weather records

Advertising

Erlangen Weather History for the Previous 24 Hours

Scroll right to see more
 ConditionsComfort  
Time TempWeatherWind HumidityBarometerVisibility
7:20 am
Tue, Feb 21
46 °FLight rain. Partly sunny.12 mph93%29.95 "Hg4 mi
6:50 am46 °FLight rain. Passing clouds.14 mph93%29.92 "Hg4 mi
6:20 am46 °FPassing clouds.13 mph93%29.92 "Hg4 mi
5:50 am46 °FPassing clouds.13 mph93%29.92 "Hg4 mi
5:20 am46 °FPartly cloudy.13 mph93%29.95 "Hg4 mi
4:50 am46 °FLight rain. Partly cloudy.13 mph93%29.95 "Hg5 mi
4:20 am46 °FLight rain. Passing clouds.15 mph93%29.95 "HgN/A
3:50 am46 °FPassing clouds.14 mph93%29.95 "HgN/A
3:20 am46 °FPassing clouds.16 mph87%29.98 "HgN/A
2:50 am46 °FPassing clouds.13 mph87%29.98 "HgN/A
2:20 am46 °FPassing clouds.15 mph87%29.98 "HgN/A
1:50 am46 °FPassing clouds.12 mph87%30.01 "HgN/A
1:20 am46 °FPassing clouds.15 mph87%30.01 "HgN/A
12:50 am46 °FPassing clouds.14 mph87%30.01 "HgN/A
12:20 am45 °FPassing clouds.14 mph93%30.01 "HgN/A
11:50 pm
Mon, Feb 20
45 °FPassing clouds.14 mph93%30.01 "HgN/A
11:20 pm45 °FPassing clouds.12 mph93%30.01 "HgN/A
10:50 pm45 °FPassing clouds.10 mph93%30.01 "Hg5 mi
10:20 pm45 °FPassing clouds.12 mph93%30.04 "Hg5 mi
9:50 pm45 °FPassing clouds.8 mph93%30.04 "HgN/A
9:20 pm45 °FPassing clouds.9 mph93%30.04 "Hg6 mi
8:50 pm45 °FLight rain. Passing clouds.7 mph93%30.04 "HgN/A
8:20 pm45 °FLight rain. Passing clouds.9 mph93%30.04 "HgN/A
7:50 pm45 °FLight rain. Passing clouds.9 mph93%30.04 "HgN/A
7:20 pm45 °FLight rain. Passing clouds.9 mph87%30.04 "HgN/A
6:50 pm45 °FLight rain. Passing clouds.10 mph87%30.07 "HgN/A
6:20 pm45 °FLight rain. Passing clouds.13 mph87%30.07 "HgN/A
5:50 pm45 °FLight rain. Passing clouds.13 mph87%30.07 "HgN/A
5:20 pm45 °FDrizzle. Partly sunny.16 mph87%30.07 "HgN/A
4:50 pm46 °FPartly sunny.15 mph76%30.07 "HgN/A
4:20 pm46 °FOvercast.14 mph76%30.07 "HgN/A
3:50 pm46 °FOvercast.12 mph76%30.07 "HgN/A
3:20 pm46 °FPartly sunny.17 mph76%30.09 "HgN/A
2:50 pm46 °FPartly sunny.17 mph76%30.09 "HgN/A
2:20 pm46 °FPartly sunny.20 mph76%30.09 "HgN/A
1:50 pm46 °FBroken clouds.17 mph76%30.09 "HgN/A
1:20 pm48 °FBroken clouds.15 mph66%30.12 "HgN/A
12:50 pm48 °FBroken clouds.17 mph71%30.12 "HgN/A
12:20 pm48 °FBroken clouds.18 mph71%30.12 "HgN/A
11:50 am48 °FPartly sunny.13 mph71%30.15 "HgN/A
11:20 am46 °FPartly sunny.12 mph76%30.15 "HgN/A
10:50 am45 °FPartly sunny.12 mph81%30.15 "HgN/A
10:20 am43 °FSunny.10 mph87%30.18 "Hg10 mi
9:20 am43 °FBroken clouds.7 mph87%30.18 "HgN/A
8:50 am41 °FPartly sunny.8 mph87%30.18 "HgN/A
8:20 am41 °FPartly sunny.6 mph87%30.15 "HgN/A
Weather by CustomWeather, © 2017

See weather overviewHow to use our weather pages